sat.trackr.live / text

‹ back to catalog

ONEWEB-0616

NORAD 55157 · 2023-004T

PAYLOAD ACTIVE UNKNOWN

§ Identity

Operator
Country
UK
Launch date
2023-01-10
Launch site
AFETR
Launch vehicle
Mass (kg)
RCS (m²)

Purposes: comms

External: N2YO · Heavens-Above · Gunter

§ Orbital elements

Epoch: 2026-05-25T03:13:30.325728Z

Period
109.29 min
Inclination
87.9154°
Eccentricity
0.0001848
Mean motion
13.17648984 rev/d
Perigee alt
1,192.3 km
Apogee alt
1,195.1 km
Semi-major
7,571.9 km
B*
-2.6554e-7
RAAN
10.4521°
Arg perigee
54.6830°
Mean anomaly
305.4474°
Rev number
16,466

§ Raw data

ONEWEB-06161 55157U 23004T   26145.13437877  .00000013  00000+0 -26554-6 0  99922 55157  87.9154  10.4521 0001848  54.6830 305.4474 13.17648984164660

JSON: /api/v1/satellites/55157 · /tle

For live sub-satellite position, see the globe view (requires WebGL).

§ Visibility from observer

Set your observer location to see the next 7 days of passes ≥ 10°. The values pass through the URL so the page stays shareable.

No JS? Fill the form by hand. The geolocation button needs JavaScript.